Date String (YYYY-MM-DD hh:mm:ss) UTC,Instrument flags,Ambient pressure (hPa),Sample flow (lpm),Bypass flow (lpm),Sample temperature (°C),Ambient temperature (°C),ASC tube jacket temperature (°C),LED temperature (°C),Box temperature (°C),Sample RH (%),Span deviation,Mass concentration (μg/m³),Mass concentration (μg/m³),Mass concentration (μg/m³)
DateTimeUTC,F1_M11,P_M11,Q1_M11,Q2_M11,T1_M11,T2_M11,T3_M11,T4_M11,T5_M11,U1_M11,ZSPAN_M11,X0_M11,X2_M11,X1_M11
2023-01-07 06:00:00,,0828.2,5.00,0.00,22.2,20.9,00.0,31.2,24.0,12.6,0000.0,0007.64,0005.12,0004.90
2023-01-07 06:01:00,,0828.3,5.00,0.00,22.3,21.2,00.0,31.1,24.2,12.6,0000.0,0007.68,0005.11,0004.89
2023-01-07 06:02:00,,0828.2,5.01,0.00,22.4,22.0,00.0,31.1,24.4,12.5,0000.0,0007.66,0005.10,0004.89
2023-01-07 06:03:00,,0828.2,5.00,0.00,22.5,22.8,00.0,31.1,24.6,12.5,0000.0,0007.71,0005.11,0004.90
2023-01-07 06:04:00,,0828.3,4.99,0.00,22.6,22.8,00.0,31.2,24.7,12.4,0000.0,0007.82,0005.16,0004.93
2023-01-07 06:05:00,,0828.3,5.00,0.00,22.6,22.4,00.0,31.3,24.6,12.4,0000.0,0007.78,0005.16,0004.95
2023-01-07 06:06:00,,0828.2,5.01,0.00,22.6,22.1,00.0,31.3,24.6,12.4,0000.0,0007.80,0005.19,0004.97
2023-01-07 06:07:00,,0828.2,5.00,0.00,22.6,21.9,00.0,31.3,24.5,12.3,0000.0,0007.79,0005.21,0004.99
2023-01-07 06:08:00,,0828.2,4.99,0.00,22.6,21.7,00.0,31.3,24.5,12.3,0000.0,0007.85,0005.27,0005.05
2023-01-07 06:09:00,,0828.2,4.99,0.00,22.6,21.4,00.0,31.3,24.3,12.2,0000.0,0007.92,0005.33,0005.11
2023-01-07 06:10:00,,0828.2,5.01,0.00,22.5,21.1,00.0,31.3,24.2,12.2,0000.0,0008.04,0005.39,0005.17
2023-01-07 06:11:00,,0828.2,5.00,0.00,22.4,21.0,00.0,31.3,24.1,12.1,0000.0,0008.11,0005.45,0005.22
2023-01-07 06:12:00,,0828.3,5.00,0.00,22.4,20.9,00.0,31.3,24.1,12.1,0000.0,0008.11,0005.52,0005.30
2023-01-07 06:13:00,,0828.2,5.00,0.00,22.4,20.9,00.0,31.3,24.1,12.2,0000.0,0008.18,0005.60,0005.37
2023-01-07 06:14:00,,0828.2,5.00,0.00,22.4,20.9,00.0,31.3,24.1,12.2,0000.0,0008.23,0005.69,0005.45
2023-01-07 06:15:00,,0828.2,5.00,0.00,22.4,20.9,00.0,31.3,24.1,12.3,0000.0,0008.24,0005.72,0005.51
2023-01-07 06:16:00,,0828.3,4.99,0.00,22.3,21.0,00.0,31.3,24.1,12.4,0000.0,0008.37,0005.80,0005.56
2023-01-07 06:17:00,,0828.2,4.99,0.00,22.3,21.0,00.0,31.3,24.1,12.5,0000.0,0008.40,0005.80,0005.56
2023-01-07 06:18:00,,0828.2,4.99,0.00,22.3,21.0,00.0,31.3,24.0,12.5,0000.0,0008.39,0005.77,0005.53
2023-01-07 06:19:00,,0828.2,5.00,0.00,22.3,21.0,00.0,31.3,24.0,12.5,0000.0,0008.34,0005.72,0005.48
2023-01-07 06:20:00,,0828.2,5.00,0.00,22.3,21.0,00.0,31.3,24.0,12.5,0000.0,0008.27,0005.63,0005.40
2023-01-07 06:21:00,,0828.2,5.00,0.00,22.3,21.1,00.0,31.3,24.1,12.4,0000.0,0008.65,0005.58,0005.35
2023-01-07 06:22:00,,0828.2,5.00,0.00,22.3,21.0,00.0,31.3,24.0,12.4,0000.0,0008.62,0005.55,0005.31
2023-01-07 06:23:00,,0828.2,5.00,0.00,22.3,21.0,00.0,31.2,24.0,12.4,0000.0,0008.58,0005.49,0005.26
2023-01-07 06:24:00,,0828.3,5.00,0.00,22.3,21.1,00.0,31.2,24.0,12.5,0000.0,0008.54,0005.44,0005.21
2023-01-07 06:25:00,,0828.3,5.00,0.00,22.3,21.0,00.0,31.2,24.1,12.6,0000.0,0008.53,0005.39,0005.15
2023-01-07 06:26:00,,0828.3,4.99,0.00,22.3,21.0,00.0,31.2,24.0,12.5,0000.0,0008.51,0005.36,0005.12
2023-01-07 06:27:00,,0828.4,5.00,0.00,22.3,21.0,00.0,31.2,24.0,12.5,0000.0,0008.74,0005.33,0005.09
2023-01-07 06:28:00,,0828.3,5.00,0.00,22.3,21.0,00.0,31.2,24.0,12.5,0000.0,0009.06,0005.33,0005.09
2023-01-07 06:29:00,,0828.3,5.02,0.00,22.3,21.0,00.0,31.2,24.0,12.5,0000.0,0009.20,0005.40,0005.15
2023-01-07 06:30:00,,0828.4,5.01,0.00,22.3,21.0,00.0,31.2,24.0,12.4,0000.0,0009.39,0005.50,0005.23
2023-01-07 06:31:00,,0828.4,4.99,0.00,22.3,20.9,00.0,31.2,24.0,12.4,0000.0,0009.37,0005.56,0005.29
2023-01-07 06:32:00,,0828.4,5.00,0.00,22.2,20.8,00.0,31.2,24.0,12.4,0000.0,0008.97,0005.59,0005.34
2023-01-07 06:33:00,,0828.3,5.00,0.00,22.2,20.7,00.0,31.2,24.0,12.5,0000.0,0008.95,0005.62,0005.37
2023-01-07 06:34:00,,0828.3,5.00,0.00,22.2,20.7,00.0,31.2,23.9,12.4,0000.0,0009.03,0005.69,0005.44
2023-01-07 06:35:00,,0828.3,4.99,0.00,22.2,20.7,00.0,31.2,23.9,12.4,0000.0,0009.63,0005.78,0005.51
2023-01-07 06:36:00,,0828.3,5.01,0.00,22.2,20.7,00.0,31.2,23.9,12.4,0000.0,0009.76,0005.84,0005.59
2023-01-07 06:37:00,,0828.3,5.01,0.00,22.2,20.7,00.0,31.2,23.9,12.4,0000.0,0009.74,0005.87,0005.63
2023-01-07 06:38:00,,0828.3,5.01,0.00,22.2,20.8,00.0,31.1,23.9,12.4,0000.0,0009.45,0005.89,0005.65
2023-01-07 06:39:00,,0828.3,5.00,0.00,22.2,20.9,00.0,31.1,23.9,12.4,0000.0,0009.21,0005.94,0005.70
2023-01-07 06:40:00,,0828.3,5.00,0.00,22.2,20.9,00.0,31.1,23.9,12.4,0000.0,0009.24,0005.97,0005.73
2023-01-07 06:41:00,,0828.3,5.01,0.00,22.2,20.9,00.0,31.1,23.9,12.5,0000.0,0009.13,0005.94,0005.71
2023-01-07 06:42:00,,0828.3,5.00,0.00,22.2,20.9,00.0,31.1,23.9,12.5,0000.0,0009.20,0005.95,0005.69
2023-01-07 06:43:00,,0828.3,5.00,0.00,22.2,20.9,00.0,31.1,23.9,12.4,0000.0,0009.24,0005.92,0005.65
2023-01-07 06:44:00,,0828.3,5.00,0.00,22.2,20.9,00.0,31.1,24.0,12.4,0000.0,0009.26,0005.91,0005.62
2023-01-07 06:45:00,,0828.3,5.00,0.00,22.2,20.9,00.0,31.1,24.0,12.3,0000.0,0009.22,0005.86,0005.56
2023-01-07 06:46:00,,0828.3,5.01,0.00,22.2,21.0,00.0,31.1,24.0,12.3,0000.0,0008.65,0005.79,0005.48
2023-01-07 06:47:00,,0828.3,5.01,0.00,22.2,21.0,00.0,31.1,24.0,12.3,0000.0,0008.44,0005.70,0005.39
2023-01-07 06:48:00,,0828.3,5.02,0.00,22.3,21.5,00.0,31.1,24.2,12.3,0000.0,,,
